Time,TemperatureF,DewpointF,PressureIn,WindDirection,WindDirectionDegrees,WindSpeedMPH,WindSpeedGustMPH,Humidity,HourlyPrecipIn,Conditions,Clouds,dailyrainin,SoftwareType,DateUTC
2013-04-07 00:02:00,35.0,30.0,-100.00,WSW,253,5.0,7.0,79,-99.99,,,-99.99,,2013-04-07 06:02:00,
2013-04-07 00:12:00,36.0,30.0,-100.00,SE,132,2.0,4.0,80,-99.99,,,-99.99,,2013-04-07 06:12:00,
2013-04-07 00:22:00,36.0,30.0,-100.00,SE,132,2.0,4.0,80,-99.99,,,-99.99,,2013-04-07 06:22:00,
2013-04-07 00:32:00,36.0,30.0,-100.00,SE,132,2.0,4.0,80,-99.99,,,-99.99,,2013-04-07 06:32:00,
2013-04-07 00:42:00,34.0,29.0,-100.00,WSW,238,3.0,5.0,80,-99.99,,,-99.99,,2013-04-07 06:42:00,
2013-04-07 00:52:00,34.0,29.0,-100.00,WSW,238,3.0,5.0,80,-99.99,,,-99.99,,2013-04-07 06:52:00,
2013-04-07 01:02:00,33.0,29.0,-100.00,WSW,252,4.0,6.0,82,-99.99,,,-99.99,,2013-04-07 07:02:00,
2013-04-07 01:12:00,33.0,29.0,-100.00,WSW,250,3.0,7.0,83,-99.99,,,-99.99,,2013-04-07 07:12:00,
2013-04-07 01:22:00,33.0,29.0,-100.00,WSW,250,3.0,7.0,83,-99.99,,,-99.99,,2013-04-07 07:22:00,
2013-04-07 01:32:00,33.0,29.0,-100.00,WSW,250,3.0,7.0,83,-99.99,,,-99.99,,2013-04-07 07:32:00,
2013-04-07 01:42:00,33.0,29.0,-100.00,SW,217,2.0,4.0,84,-99.99,,,-99.99,,2013-04-07 07:42:00,
2013-04-07 01:52:00,33.0,29.0,-100.00,SW,217,2.0,4.0,84,-99.99,,,-99.99,,2013-04-07 07:52:00,
2013-04-07 02:02:00,33.0,28.0,-100.00,SW,236,2.0,4.0,84,-99.99,,,-99.99,,2013-04-07 08:02:00,
2013-04-07 02:12:00,32.0,28.0,-100.00,SW,233,3.0,4.0,85,-99.99,,,-99.99,,2013-04-07 08:12:00,
2013-04-07 02:22:00,32.0,28.0,-100.00,SW,233,3.0,4.0,85,-99.99,,,-99.99,,2013-04-07 08:22:00,
2013-04-07 02:32:00,32.0,28.0,-100.00,SW,233,3.0,4.0,85,-99.99,,,-99.99,,2013-04-07 08:32:00,
2013-04-07 02:42:00,31.0,28.0,-100.00,SW,224,0.0,2.0,86,-99.99,,,-99.99,,2013-04-07 08:42:00,
2013-04-07 02:53:00,31.0,28.0,-100.00,SW,224,0.0,2.0,86,-99.99,,,-99.99,,2013-04-07 08:53:00,
2013-04-07 03:02:00,31.0,27.0,-100.00,WSW,243,2.0,3.0,86,-99.99,,,-99.99,,2013-04-07 09:02:00,
2013-04-07 03:12:00,31.0,28.0,-100.00,SW,221,2.0,4.0,87,-99.99,,,-99.99,,2013-04-07 09:12:00,
2013-04-07 03:22:00,31.0,28.0,-100.00,SW,221,2.0,4.0,87,-99.99,,,-99.99,,2013-04-07 09:22:00,
2013-04-07 03:33:00,31.0,28.0,-100.00,SW,221,2.0,4.0,87,-99.99,,,-99.99,,2013-04-07 09:33:00,
2013-04-07 03:43:00,31.0,28.0,-100.00,SW,227,3.0,5.0,87,-99.99,,,-99.99,,2013-04-07 09:43:00,
2013-04-07 03:53:00,31.0,28.0,-100.00,SW,227,3.0,5.0,87,-99.99,,,-99.99,,2013-04-07 09:53:00,
2013-04-07 04:03:00,31.0,28.0,-100.00,SW,225,1.0,2.0,87,-99.99,,,-99.99,,2013-04-07 10:03:00,
2013-04-07 04:13:00,31.0,27.0,-100.00,SW,231,0.0,1.0,87,-99.99,,,-99.99,,2013-04-07 10:13:00,
2013-04-07 04:22:00,31.0,27.0,-100.00,SW,231,0.0,1.0,87,-99.99,,,-99.99,,2013-04-07 10:22:00,
2013-04-07 04:32:00,31.0,27.0,-100.00,SW,231,0.0,1.0,87,-99.99,,,-99.99,,2013-04-07 10:32:00,
2013-04-07 04:42:00,31.0,27.0,-100.00,SSE,154,1.0,3.0,87,-99.99,,,-99.99,,2013-04-07 10:42:00,
2013-04-07 04:53:00,31.0,27.0,-100.00,SSE,154,1.0,3.0,87,-99.99,,,-99.99,,2013-04-07 10:53:00,
2013-04-07 05:02:00,30.0,27.0,-100.00,WSW,248,1.0,2.0,87,-99.99,,,-99.99,,2013-04-07 11:02:00,
2013-04-07 05:12:00,31.0,27.0,-100.00,South,181,0.0,3.0,87,-99.99,,,-99.99,,2013-04-07 11:12:00,
2013-04-07 05:22:00,31.0,27.0,-100.00,South,181,0.0,3.0,87,-99.99,,,-99.99,,2013-04-07 11:22:00,
2013-04-07 05:32:00,31.0,27.0,-100.00,South,181,0.0,3.0,87,-99.99,,,-99.99,,2013-04-07 11:32:00,
2013-04-07 05:42:00,31.0,28.0,-100.00,SSW,194,0.0,2.0,87,-99.99,,,-99.99,,2013-04-07 11:42:00,
2013-04-07 05:53:00,31.0,28.0,-100.00,SSW,194,0.0,2.0,87,-99.99,,,-99.99,,2013-04-07 11:53:00,
2013-04-07 06:02:00,31.0,28.0,-100.00,SW,217,1.0,2.0,87,-99.99,,,-99.99,,2013-04-07 12:02:00,
2013-04-07 06:12:00,32.0,29.0,-100.00,SW,214,3.0,9.0,86,-99.99,,,-99.99,,2013-04-07 12:12:00,
2013-04-07 06:22:00,32.0,29.0,-100.00,SW,214,3.0,9.0,86,-99.99,,,-99.99,,2013-04-07 12:22:00,
2013-04-07 06:33:00,32.0,29.0,-100.00,SW,214,3.0,9.0,86,-99.99,,,-99.99,,2013-04-07 12:33:00,
2013-04-07 06:42:00,34.0,29.0,-100.00,East,101,2.0,6.0,81,-99.99,,,-99.99,,2013-04-07 12:42:00,
2013-04-07 06:53:00,34.0,29.0,-100.00,East,101,2.0,6.0,81,-99.99,,,-99.99,,2013-04-07 12:53:00,
2013-04-07 07:03:00,33.0,28.0,-100.00,ENE,63,1.0,3.0,82,-99.99,,,-99.99,,2013-04-07 13:03:00,
2013-04-07 07:12:00,33.0,29.0,-100.00,West,260,2.0,4.0,83,-99.99,,,-99.99,,2013-04-07 13:12:00,
2013-04-07 07:22:00,33.0,29.0,-100.00,West,260,2.0,4.0,83,-99.99,,,-99.99,,2013-04-07 13:22:00,
2013-04-07 07:32:00,33.0,29.0,-100.00,West,260,2.0,4.0,83,-99.99,,,-99.99,,2013-04-07 13:32:00,
2013-04-07 07:42:00,34.0,29.0,-100.00,SW,223,2.0,4.0,80,-99.99,,,-99.99,,2013-04-07 13:42:00,
2013-04-07 07:53:00,34.0,29.0,-100.00,SW,223,2.0,4.0,80,-99.99,,,-99.99,,2013-04-07 13:53:00,
2013-04-07 08:02:00,34.0,29.0,-100.00,WSW,248,4.0,10.0,79,-99.99,,,-99.99,,2013-04-07 14:02:00,
2013-04-07 08:12:00,35.0,29.0,-100.00,East,95,5.0,9.0,78,-99.99,,,-99.99,,2013-04-07 14:12:00,
2013-04-07 08:22:00,35.0,29.0,-100.00,East,95,5.0,9.0,78,-99.99,,,-99.99,,2013-04-07 14:22:00,
2013-04-07 08:32:00,35.0,29.0,-100.00,East,95,5.0,9.0,78,-99.99,,,-99.99,,2013-04-07 14:32:00,
2013-04-07 08:43:00,38.0,30.0,-100.00,East,79,3.0,8.0,70,-99.99,,,-99.99,,2013-04-07 14:43:00,
2013-04-07 08:53:00,38.0,30.0,-100.00,East,79,3.0,8.0,70,-99.99,,,-99.99,,2013-04-07 14:53:00,
2013-04-07 09:02:00,39.0,29.0,-100.00,ENE,61,1.0,4.0,68,-99.99,,,-99.99,,2013-04-07 15:02:00,
2013-04-07 09:12:00,40.0,30.0,-100.00,ENE,78,2.0,6.0,66,-99.99,,,-99.99,,2013-04-07 15:12:00,
2013-04-07 09:22:00,40.0,30.0,-100.00,ENE,78,2.0,6.0,66,-99.99,,,-99.99,,2013-04-07 15:22:00,
2013-04-07 09:33:00,40.0,30.0,-100.00,ENE,78,2.0,6.0,66,-99.99,,,-99.99,,2013-04-07 15:33:00,
2013-04-07 09:43:00,42.0,30.0,-100.00,North,5,2.0,5.0,62,-99.99,,,-99.99,,2013-04-07 15:43:00,
2013-04-07 09:54:00,42.0,30.0,-100.00,North,5,2.0,5.0,62,-99.99,,,-99.99,,2013-04-07 15:54:00,
2013-04-07 10:03:00,43.0,31.0,-100.00,NE,39,3.0,6.0,63,-99.99,,,-99.99,,2013-04-07 16:03:00,
2013-04-07 10:13:00,43.0,30.0,-100.00,WNW,303,6.0,16.0,58,-99.99,,,-99.99,,2013-04-07 16:13:00,
2013-04-07 10:23:00,43.0,30.0,-100.00,WNW,303,6.0,16.0,58,-99.99,,,-99.99,,2013-04-07 16:23:00,
2013-04-07 10:32:00,43.0,30.0,-100.00,WNW,303,6.0,16.0,58,-99.99,,,-99.99,,2013-04-07 16:32:00,
2013-04-07 10:42:00,43.0,32.0,-100.00,WNW,283,8.0,15.0,64,-99.99,,,-99.99,,2013-04-07 16:42:00,
2013-04-07 10:54:00,43.0,32.0,-100.00,WNW,283,8.0,15.0,64,-99.99,,,-99.99,,2013-04-07 16:54:00,
2013-04-07 11:03:00,45.0,31.0,-100.00,West,268,9.0,16.0,57,-99.99,,,-99.99,,2013-04-07 17:03:00,
2013-04-07 11:12:00,45.0,32.0,-100.00,West,278,8.0,14.0,59,-99.99,,,-99.99,,2013-04-07 17:12:00,
2013-04-07 11:22:00,45.0,32.0,-100.00,West,278,8.0,14.0,59,-99.99,,,-99.99,,2013-04-07 17:22:00,
2013-04-07 11:32:00,45.0,32.0,-100.00,West,278,8.0,14.0,59,-99.99,,,-99.99,,2013-04-07 17:32:00,
2013-04-07 11:42:00,48.0,29.0,-100.00,WSW,251,10.0,20.0,46,-99.99,,,-99.99,,2013-04-07 17:42:00,
2013-04-07 11:53:00,48.0,29.0,-100.00,WSW,251,10.0,20.0,46,-99.99,,,-99.99,,2013-04-07 17:53:00,
2013-04-07 12:02:00,48.0,29.0,-100.00,WSW,251,10.0,20.0,46,-99.99,,,-99.99,,2013-04-07 18:02:00,
2013-04-07 12:12:00,49.0,27.0,-100.00,West,260,11.0,18.0,42,-99.99,,,-99.99,,2013-04-07 18:12:00,
2013-04-07 12:22:00,49.0,27.0,-100.00,West,260,11.0,18.0,42,-99.99,,,-99.99,,2013-04-07 18:22:00,
2013-04-07 12:32:00,49.0,27.0,-100.00,West,260,11.0,18.0,42,-99.99,,,-99.99,,2013-04-07 18:32:00,
2013-04-07 12:42:00,50.0,27.0,-100.00,West,268,9.0,19.0,39,-99.99,,,-99.99,,2013-04-07 18:42:00,
2013-04-07 12:52:00,50.0,27.0,-100.00,West,268,9.0,19.0,39,-99.99,,,-99.99,,2013-04-07 18:52:00,
2013-04-07 13:02:00,50.0,27.0,-100.00,West,268,9.0,19.0,39,-99.99,,,-99.99,,2013-04-07 19:02:00,
2013-04-07 13:12:00,51.0,26.0,-100.00,West,259,9.0,18.0,38,-99.99,,,-99.99,,2013-04-07 19:12:00,
2013-04-07 13:22:00,51.0,26.0,-100.00,West,259,9.0,18.0,38,-99.99,,,-99.99,,2013-04-07 19:22:00,
2013-04-07 13:32:00,51.0,26.0,-100.00,West,259,9.0,18.0,38,-99.99,,,-99.99,,2013-04-07 19:32:00,
2013-04-07 13:42:00,51.0,27.0,-100.00,West,262,11.0,19.0,39,-99.99,,,-99.99,,2013-04-07 19:42:00,
2013-04-07 13:54:00,51.0,27.0,-100.00,West,262,11.0,19.0,39,-99.99,,,-99.99,,2013-04-07 19:54:00,
2013-04-07 14:02:00,50.0,28.0,-100.00,West,266,10.0,20.0,41,-99.99,,,-99.99,,2013-04-07 20:02:00,
2013-04-07 14:12:00,50.0,28.0,-100.00,West,261,9.0,17.0,42,-99.99,,,-99.99,,2013-04-07 20:12:00,
2013-04-07 14:22:00,50.0,28.0,-100.00,West,261,9.0,17.0,42,-99.99,,,-99.99,,2013-04-07 20:22:00,
2013-04-07 14:32:00,50.0,28.0,-100.00,West,261,9.0,17.0,42,-99.99,,,-99.99,,2013-04-07 20:32:00,
2013-04-07 14:42:00,51.0,28.0,-100.00,West,263,10.0,17.0,41,-99.99,,,-99.99,,2013-04-07 20:42:00,
2013-04-07 14:53:00,51.0,28.0,-100.00,West,263,10.0,17.0,41,-99.99,,,-99.99,,2013-04-07 20:53:00,
2013-04-07 15:02:00,51.0,30.0,-100.00,West,272,9.0,18.0,44,-99.99,,,-99.99,,2013-04-07 21:02:00,
2013-04-07 15:12:00,51.0,29.0,-100.00,West,267,10.0,20.0,41,-99.99,,,-99.99,,2013-04-07 21:12:00,
2013-04-07 15:22:00,51.0,29.0,-100.00,West,267,10.0,20.0,41,-99.99,,,-99.99,,2013-04-07 21:22:00,
2013-04-07 15:33:00,51.0,29.0,-100.00,West,267,10.0,20.0,41,-99.99,,,-99.99,,2013-04-07 21:33:00,
2013-04-07 15:43:00,51.0,29.0,-100.00,West,267,10.0,20.0,41,-99.99,,,-99.99,,2013-04-07 21:43:00,
2013-04-07 15:55:00,51.0,28.0,-100.00,West,272,11.0,19.0,40,-99.99,,,-99.99,,2013-04-07 21:55:00,
2013-04-07 16:03:00,52.0,28.0,-100.00,West,274,10.0,16.0,39,-99.99,,,-99.99,,2013-04-07 22:03:00,
2013-04-07 16:13:00,51.0,27.0,-100.00,West,272,10.0,20.0,39,-99.99,,,-99.99,,2013-04-07 22:13:00,
2013-04-07 16:23:00,51.0,27.0,-100.00,West,272,10.0,20.0,39,-99.99,,,-99.99,,2013-04-07 22:23:00,
2013-04-07 16:33:00,51.0,27.0,-100.00,West,272,10.0,20.0,39,-99.99,,,-99.99,,2013-04-07 22:33:00,
2013-04-07 16:43:00,51.0,29.0,-100.00,West,281,8.0,15.0,43,-99.99,,,-99.99,,2013-04-07 22:43:00,
2013-04-07 16:53:00,51.0,29.0,-100.00,West,281,8.0,15.0,43,-99.99,,,-99.99,,2013-04-07 22:53:00,
2013-04-07 17:03:00,52.0,26.0,-100.00,West,267,9.0,16.0,37,-99.99,,,-99.99,,2013-04-07 23:03:00,
2013-04-07 17:12:00,52.0,24.0,-100.00,WSW,249,8.0,18.0,33,-99.99,,,-99.99,,2013-04-07 23:12:00,
2013-04-07 17:22:00,52.0,24.0,-100.00,WSW,249,8.0,18.0,33,-99.99,,,-99.99,,2013-04-07 23:22:00,
2013-04-07 17:32:00,52.0,24.0,-100.00,WSW,249,8.0,18.0,33,-99.99,,,-99.99,,2013-04-07 23:32:00,
2013-04-07 17:42:00,53.0,24.0,-100.00,SW,224,6.0,17.0,32,-99.99,,,-99.99,,2013-04-07 23:42:00,
2013-04-07 17:52:00,53.0,24.0,-100.00,SW,224,6.0,17.0,32,-99.99,,,-99.99,,2013-04-07 23:52:00,
2013-04-07 18:02:00,53.0,24.0,-100.00,SW,224,6.0,17.0,32,-99.99,,,-99.99,,2013-04-08 00:02:00,
2013-04-07 18:12:00,52.0,23.0,-100.00,SW,226,4.0,8.0,31,-99.99,,,-99.99,,2013-04-08 00:12:00,
2013-04-07 18:22:00,52.0,23.0,-100.00,SW,226,4.0,8.0,31,-99.99,,,-99.99,,2013-04-08 00:22:00,
2013-04-07 18:32:00,52.0,23.0,-100.00,SW,226,4.0,8.0,31,-99.99,,,-99.99,,2013-04-08 00:32:00,
2013-04-07 18:42:00,52.0,22.0,-100.00,WSW,239,4.0,9.0,30,-99.99,,,-99.99,,2013-04-08 00:42:00,
2013-04-07 18:53:00,52.0,22.0,-100.00,WSW,239,4.0,9.0,30,-99.99,,,-99.99,,2013-04-08 00:53:00,
2013-04-07 19:02:00,52.0,22.0,-100.00,SW,227,3.0,7.0,30,-99.99,,,-99.99,,2013-04-08 01:02:00,
2013-04-07 19:12:00,52.0,24.0,-100.00,SSW,195,3.0,7.0,33,-99.99,,,-99.99,,2013-04-08 01:12:00,
2013-04-07 19:22:00,52.0,24.0,-100.00,SSW,195,3.0,7.0,33,-99.99,,,-99.99,,2013-04-08 01:22:00,
2013-04-07 19:32:00,52.0,24.0,-100.00,SSW,195,3.0,7.0,33,-99.99,,,-99.99,,2013-04-08 01:32:00,
2013-04-07 19:42:00,50.0,27.0,-100.00,South,189,2.0,3.0,40,-99.99,,,-99.99,,2013-04-08 01:42:00,
2013-04-07 19:55:00,50.0,27.0,-100.00,South,189,2.0,3.0,40,-99.99,,,-99.99,,2013-04-08 01:55:00,
2013-04-07 20:02:00,47.0,28.0,-100.00,SSW,193,2.0,4.0,46,-99.99,,,-99.99,,2013-04-08 02:02:00,
2013-04-07 20:12:00,45.0,29.0,-100.00,SW,233,3.0,4.0,52,-99.99,,,-99.99,,2013-04-08 02:12:00,
2013-04-07 20:22:00,45.0,29.0,-100.00,SW,233,3.0,4.0,52,-99.99,,,-99.99,,2013-04-08 02:22:00,
2013-04-07 20:32:00,45.0,29.0,-100.00,SW,233,3.0,4.0,52,-99.99,,,-99.99,,2013-04-08 02:32:00,
2013-04-07 20:44:00,44.0,28.0,-100.00,WSW,246,4.0,7.0,53,-99.99,,,-99.99,,2013-04-08 02:44:00,
2013-04-07 20:53:00,44.0,28.0,-100.00,WSW,246,4.0,7.0,53,-99.99,,,-99.99,,2013-04-08 02:53:00,
2013-04-07 21:05:00,44.0,27.0,-100.00,WSW,250,4.0,8.0,50,-99.99,,,-99.99,,2013-04-08 03:05:00,
2013-04-07 21:13:00,43.0,28.0,-100.00,SW,236,3.0,8.0,53,-99.99,,,-99.99,,2013-04-08 03:13:00,
2013-04-07 21:23:00,43.0,28.0,-100.00,SW,236,3.0,8.0,53,-99.99,,,-99.99,,2013-04-08 03:23:00,
2013-04-07 21:33:00,43.0,28.0,-100.00,SW,236,3.0,8.0,53,-99.99,,,-99.99,,2013-04-08 03:33:00,
2013-04-07 21:55:00,43.0,27.0,-100.00,WSW,253,5.0,7.0,52,-99.99,,,-99.99,,2013-04-08 03:55:00,
2013-04-07 22:02:00,43.0,26.0,-100.00,West,261,4.0,8.0,51,-99.99,,,-99.99,,2013-04-08 04:02:00,
2013-04-07 22:12:00,42.0,28.0,-100.00,WSW,237,4.0,7.0,55,-99.99,,,-99.99,,2013-04-08 04:12:00,
2013-04-07 22:23:00,42.0,28.0,-100.00,WSW,237,4.0,7.0,55,-99.99,,,-99.99,,2013-04-08 04:23:00,
2013-04-07 22:33:00,42.0,28.0,-100.00,WSW,237,4.0,7.0,55,-99.99,,,-99.99,,2013-04-08 04:33:00,
2013-04-07 22:43:00,42.0,28.0,-100.00,SW,215,2.0,7.0,56,-99.99,,,-99.99,,2013-04-08 04:43:00,
2013-04-07 22:53:00,42.0,28.0,-100.00,SW,215,2.0,7.0,56,-99.99,,,-99.99,,2013-04-08 04:53:00,
2013-04-07 23:02:00,42.0,28.0,-100.00,WSW,251,2.0,5.0,56,-99.99,,,-99.99,,2013-04-08 05:02:00,
2013-04-07 23:12:00,42.0,28.0,-100.00,WSW,244,2.0,4.0,58,-99.99,,,-99.99,,2013-04-08 05:12:00,
2013-04-07 23:22:00,42.0,28.0,-100.00,WSW,244,2.0,4.0,58,-99.99,,,-99.99,,2013-04-08 05:22:00,
2013-04-07 23:32:00,42.0,28.0,-100.00,WSW,244,2.0,4.0,58,-99.99,,,-99.99,,2013-04-08 05:32:00,
2013-04-07 23:42:00,41.0,29.0,-100.00,SSW,198,2.0,5.0,60,-99.99,,,-99.99,,2013-04-08 05:42:00,
2013-04-07 23:52:00,41.0,29.0,-100.00,SSW,198,2.0,5.0,60,-99.99,,,-99.99,,2013-04-08 05:52:00,